sat.trackr.live / text

‹ back to catalog

CHECKMATE 1

NORAD 56168 · 2023-050G

PAYLOAD ACTIVE UNKNOWN

§ Identity

Operator
Country
US
Launch date
2023-04-02
Launch site
AFWTR
Launch vehicle
Mass (kg)
RCS (m²)

External: N2YO · Heavens-Above · Gunter

§ Orbital elements

Epoch: 2026-05-25T03:25:03.278784Z

Period
103.98 min
Inclination
81.0034°
Eccentricity
0.0012445
Mean motion
13.84947261 rev/d
Perigee alt
937.3 km
Apogee alt
955.5 km
Semi-major
7,324.5 km
B*
6.8557e-5
RAAN
94.0592°
Arg perigee
51.0226°
Mean anomaly
309.2036°
Rev number
15,890

§ Raw data

CHECKMATE 11 56168U 23050G   26145.14239906  .00000089  00000+0  68557-4 0  99992 56168  81.0034  94.0592 0012445  51.0226 309.2036 13.84947261158906

JSON: /api/v1/satellites/56168 · /tle

For live sub-satellite position, see the globe view (requires WebGL).

§ Visibility from observer

Set your observer location to see the next 7 days of passes ≥ 10°. The values pass through the URL so the page stays shareable.

No JS? Fill the form by hand. The geolocation button needs JavaScript.